Regional Weather Roundup
Issued by NWS Upton, NY

Current Version | Previous Version | Text Only | Print | Product List | Glossary Off
Versions: 1 2 3 4 5 6 7 8 9 10 11 12 13 14 15 16 17 18 19 20 21 22 23 24 25 26 27 28 29 30 31 32 33 34 35 36 37 38 39 40 41 42 43 44 45 46 47 48 49 50
341 ASUS41 KOKX 281105 RWROKX REGIONAL WEATHER ROUNDUP NATIONAL WEATHER SERVICE NEW YORK NY 700 AM EDT THU JUL 28 2016 NOTE: "FAIR" INDICATES FEW OR NO CLOUDS BELOW 12,000 FEET WITH NO SIGNIFICANT WEATHER AND/OR OBSTRUCTIONS TO VISIBILITY. NYZ071-072-176-178-NJZ106-104-281200- NEW YORK CITY METRO AREA CITY SKY/WX TMP DP RH WIND PRES REMARKS Central Park MOSUNNY 78 72 81 CALM 29.94R LaGuardia APRT MOSUNNY 80 73 79 CALM 29.91R Kennedy INTL MOSUNNY 77 74 90 S3 29.92R Newark/Liberty MOSUNNY 78 71 79 W6 29.91R Bronx Bot Gard N/A 75 70 83 E3 29.92F Wall St Helipt SUNNY 77 73 88 W5 29.92R Teterboro MOSUNNY 75 63 66 NW3 29.91R $$ NYZ177-179-078>081-281200- LONG ISLAND NEW YORK CITY SKY/WX TMP DP RH WIND PRES REMARKS Farmingdale MOSUNNY 75 74 96 S5 29.92R FOG MacArthur/ISP PTSUNNY 75 74 96 SW3 29.91S FOG Shirley FOG 76 74 93 CALM 29.92S VSB 3/4 Riverhead NOT AVBL Westhampton PTSUNNY 74 72 93 W3 29.94R FOG Southhampton N/A 73 73 100 W2 29.88S Bridgehampton N/A 70 68 94 CALM 29.91S East Hampton CLOUDY 69 67 94 CALM 29.91S Montauk N/A 71 71 100 S3 29.93S $$ NYZ052-065-067-281200- HUDSON VALLEY CITY SKY/WX TMP DP RH WIND PRES REMARKS White Plains SUNNY 73 69 87 NW3 29.92S Newburgh SUNNY 68 64 88 CALM 29.94S Montgomery SUNNY 65 63 93 CALM 29.93S Poughkeepsie SUNNY 67 62 84 CALM 29.92R Albany MOSUNNY 69 63 81 CALM 29.92R $$ NJZ001-105-106-008-010-013-015-019>022-104-281200- NEW JERSEY CITY SKY/WX TMP DP RH WIND PRES REMARKS Newark/Liberty MOSUNNY 78 71 79 W6 29.91R Teterboro MOSUNNY 75 63 66 NW3 29.91R Caldwell MOSUNNY 70 66 87 CALM 29.93R Morristown SUNNY 64 64 100 CALM 29.93R Somerville SUNNY 67 64 90 CALM 29.90S Linden FAIR 75 70 84 CALM 29.93S Sussex SUNNY 63 62 97 CALM 29.95R Abdover N/A 63 62 97 CALM 29.95R Trenton CLOUDY 72 71 97 CALM 29.92R FOG Millville SUNNY 74 72 93 CALM 29.91S FOG Atlantic City SUNNY 73 71 93 CALM 29.91S FOG Wrightstown NOT AVBL Toms River PTSUNNY 71 69 93 CALM 29.93R FOG Belmar SUNNY 75 73 93 CALM 29.93R $$ PAZ047>061-062-071-281200- EASTERN PENNSYLVANIA CITY SKY/WX TMP DP RH WIND PRES REMARKS Philadelphia PTSUNNY 78 69 73 CALM 29.91S Allentown SUNNY 69 63 81 CALM 29.93S Scranton SUNNY 66 60 81 E6 29.96R $$ CTZ002-004>006-009-010-012-RIZ004-006-007-MAZ004-011-015-281200- SOUTHERN NEW ENGLAND IN CT CITY SKY/WX TMP DP RH WIND PRES REMARKS Bradley INTL MOSUNNY 69 61 75 CALM 29.92S Hartford SUNNY 73 68 84 CALM 29.91S Danbury SUNNY 67 64 90 CALM 29.94S Wtrbury/Oxford MOSUNNY 68 63 83 CALM 29.95S Bridgeport SUNNY 75 68 78 NE3 29.91S Meriden SUNNY 69 65 86 CALM 29.92S New Haven MOSUNNY 72 70 93 CALM 29.91S Chester FAIR 73 70 88 CALM 29.93S Groton SUNNY 72 69 90 CALM 29.91S Wilimantic NOT AVBL IN RI CITY SKY/WX TMP DP RH WIND PRES REMARKS Providence MOSUNNY 72 67 84 S3 29.91F Block Island FOG 71 71 100 S3 29.93S VSB<1/4 Westerly MOSUNNY 69 65 86 CALM 29.93S IN MA CITY SKY/WX TMP DP RH WIND PRES REMARKS Boston MOSUNNY 77 64 64 CALM 29.90R Worchester SUNNY 72 61 68 W7 29.95R Westfield SUNNY 68 61 78 CALM 29.92S Provincetown NOT AVBL Nantucket MOSUNNY 71 69 93 SW9 29.93R $$ ANZ330-335-338-340-345-350-353-355-281200- COASTAL MARINE OBSERVATIONS STATION/POSITION TIME SKY/WX TEMP WIND PRES VSBY WAVE AIR SEA DIR/SP/G HT/PER (UTC) (F) (DEG/KT/KT) (MB) (MI) (FT/S) NY HARB ENTRANCE 0950 73 74 130/ 4/ 4 1012.5 1/ 6 20S FIRE ISLAND 0950 76 76 250/ 6/ 6 1012.5 1/ 6 GREAT SOUTH BAY 1030 77 81 230/ 4/ 8 N/A 23 SSW MONTAUK P 0950 74 71 250/ 4/ 4 1013.4 1/ 6 15 E BARNEGAT LI 1022 78 N/A 1/ 6 HUDSON CANYON 0950 78 78 1012.7 1/ 8 KINGS POINT 1000 73 73 1012.5 EXECUTION ROCKS 1000 72 30/ 2/ 4 N/A CENTRAL LI SOUND NOT AVBL EASTERN LI SOUND 1000 70 68 140/ 2/ 4 N/A ROBBINS REEF 1000 76 CALM 1012.0 $$ >>>>>>>>>>>>>>>>>>>>>>>>>>>> KEY <<<<<<<<<<<<<<<<<<<<<<<<<<< > < > SKY/WX - Sky Condition/Present Weather < > TMP - Temperature in Fahrenheit < > DP - Dew Point in Fahrenheit < > RH - Relative Humidity in Percent < > WIND - Direction (from) and Speed in MPH < > PRES - Mean Sea Level Pressure (inches of Hg) < > WCI - Wind Chill Index < > VSB - VISIBILITY IN MILES < > HX - HEAT INDEX < > TC - TEMPERATURE IN CELSIUS < > VRB - VARIABLE WIND DIRECTION < > < >>>>>>>>>>>>>>>>>>>>>>>>>>>> KEY <<<<<<<<<<<<<<<<<<<<<<<<<<<

USA.gov is the U.S. government's official web portal to all federal, state and local government web resources and services.